Date String (YYYY-MM-DD hh:mm:ss) UTC,Instrument flags,Ambient pressure (hPa),Sample flow (lpm),Bypass flow (lpm),Sample temperature (°C),Ambient temperature (°C),ASC tube jacket temperature (°C),LED temperature (°C),Box temperature (°C),Sample RH (%),Span deviation,Mass concentration (μg/m³),Mass concentration (μg/m³),Mass concentration (μg/m³)
DateTimeUTC,F1_M11,P_M11,Q1_M11,Q2_M11,T1_M11,T2_M11,T3_M11,T4_M11,T5_M11,U1_M11,ZSPAN_M11,X0_M11,X2_M11,X1_M11
2022-08-02 03:00:00,,0826.6,5.00,0.00,29.5,28.4,00.0,38.2,31.5,22.7,0002.3,0008.37,0005.95,0005.64
2022-08-02 03:01:00,,0826.6,5.00,0.00,29.5,27.8,00.0,38.2,31.3,22.7,0001.8,0008.31,0005.91,0005.63
2022-08-02 03:02:00,,0826.6,5.01,0.00,29.4,27.1,00.0,38.1,31.1,22.7,0000.0,0008.26,0005.89,0005.63
2022-08-02 03:03:00,,0826.6,5.00,0.00,29.4,27.0,00.0,38.1,31.1,22.7,0000.0,0008.23,0005.88,0005.61
2022-08-02 03:04:00,,0826.7,5.01,0.00,29.3,27.1,00.0,38.1,31.0,22.6,0000.0,0008.20,0005.89,0005.61
2022-08-02 03:05:00,,0826.7,4.99,0.00,29.2,27.3,00.0,38.1,31.0,22.6,0000.0,0008.11,0005.88,0005.60
2022-08-02 03:06:00,,0826.7,5.00,0.00,29.2,27.4,00.0,38.1,31.0,22.8,0000.0,0008.07,0005.85,0005.59
2022-08-02 03:07:00,,0826.7,5.02,0.00,29.3,27.6,00.0,38.1,31.1,23.0,0000.0,0008.29,0005.83,0005.59
2022-08-02 03:08:00,,0826.7,5.00,0.00,29.3,27.8,00.0,38.1,31.2,23.0,0000.0,0008.35,0005.83,0005.56
2022-08-02 03:09:00,,0826.7,5.00,0.00,29.3,27.9,00.0,38.1,31.2,23.0,0000.0,0008.33,0005.83,0005.55
2022-08-02 03:10:00,,0826.7,5.01,0.00,29.3,28.1,00.0,38.1,31.3,23.0,0000.0,0008.39,0005.82,0005.53
2022-08-02 03:11:00,,0826.7,5.01,0.00,29.4,28.2,00.0,38.1,31.3,22.9,0000.0,0008.45,0005.83,0005.52
2022-08-02 03:12:00,,0826.7,5.00,0.00,29.4,28.3,00.0,38.1,31.4,22.7,0000.0,0008.51,0005.83,0005.50
2022-08-02 03:13:00,,0826.7,4.99,0.00,29.4,28.4,00.0,38.1,31.4,22.7,0000.0,0008.61,0005.85,0005.49
2022-08-02 03:14:00,,0826.7,5.00,0.00,29.5,28.5,00.0,38.2,31.5,22.4,0000.0,0008.67,0005.87,0005.48
2022-08-02 03:15:00,,0826.8,5.00,0.00,29.5,28.6,00.0,38.2,31.5,22.3,0000.0,0008.64,0005.85,0005.49
2022-08-02 03:16:00,,0826.7,5.00,0.00,29.5,28.2,00.0,38.2,31.4,22.4,0000.0,0008.65,0005.86,0005.49
2022-08-02 03:17:00,,0826.8,4.99,0.00,29.5,27.4,00.0,38.2,31.3,22.3,0000.0,0008.66,0005.86,0005.49
2022-08-02 03:18:00,,0826.8,5.01,0.00,29.4,27.1,00.0,38.2,31.2,22.4,0000.0,0008.35,0005.86,0005.49
2022-08-02 03:19:00,,0826.7,4.99,0.00,29.4,27.1,00.0,38.1,31.1,22.4,0000.0,0008.27,0005.85,0005.50
2022-08-02 03:20:00,,0827.0,5.01,0.00,29.3,27.2,00.0,38.1,31.1,22.4,0000.0,0008.32,0005.84,0005.50
2022-08-02 03:21:00,,0827.2,5.00,0.00,29.3,27.4,00.0,38.1,31.1,22.6,0000.0,0009.13,0005.87,0005.53
2022-08-02 03:22:00,,0826.8,4.99,0.00,29.3,27.5,00.0,38.1,31.1,22.6,0000.0,0009.07,0005.86,0005.53
2022-08-02 03:23:00,,0826.8,5.00,0.00,29.3,27.7,00.0,38.1,31.2,22.4,0000.0,0009.07,0005.88,0005.54
2022-08-02 03:24:00,,0827.1,5.00,0.00,29.3,27.9,00.0,38.1,31.2,22.4,0000.0,0009.03,0005.86,0005.54
2022-08-02 03:25:00,,0826.9,5.00,0.00,29.3,28.0,00.0,38.1,31.3,22.4,0000.0,0008.95,0005.85,0005.55
2022-08-02 03:26:00,,0826.9,5.00,0.00,29.4,28.2,00.0,38.1,31.3,22.3,0000.0,0008.92,0005.84,0005.55
2022-08-02 03:27:00,,0826.8,5.00,0.00,29.4,28.3,00.0,38.1,31.4,22.4,0000.0,0008.92,0005.84,0005.55
2022-08-02 03:28:00,,0826.9,4.99,0.00,29.4,28.4,00.0,38.2,31.4,22.4,0000.0,0008.94,0005.85,0005.55
2022-08-02 03:29:00,,0826.9,5.01,0.00,29.5,28.5,00.0,38.2,31.5,22.3,0000.0,0008.98,0005.87,0005.55
2022-08-02 03:30:00,,0826.9,4.99,0.00,29.5,28.6,00.0,38.2,31.5,22.3,0000.0,0008.94,0005.85,0005.54
2022-08-02 03:31:00,,0826.9,5.00,0.00,29.5,28.1,00.0,38.2,31.4,22.4,0000.5,0008.84,0005.84,0005.54
2022-08-02 03:32:00,,0826.9,5.01,0.00,29.5,27.3,00.0,38.2,31.2,22.4,0002.3,0008.02,0005.82,0005.53
2022-08-02 03:33:00,,0826.8,4.99,0.00,29.4,27.0,00.0,38.2,31.2,22.4,0002.6,0008.17,0005.81,0005.54
2022-08-02 03:34:00,,0826.9,5.02,0.00,29.3,27.0,00.0,38.1,31.1,22.5,0002.7,0008.52,0005.79,0005.54
2022-08-02 03:35:00,,0826.9,5.00,0.00,29.3,27.1,00.0,38.1,31.1,22.6,0002.2,0008.46,0005.79,0005.55
2022-08-02 03:36:00,,0827.0,4.99,0.00,29.3,27.3,00.0,38.1,31.1,22.6,0001.9,0008.44,0005.78,0005.55
2022-08-02 03:37:00,,0826.8,5.00,0.00,29.3,27.5,00.0,38.1,31.1,22.6,0002.3,0008.48,0005.76,0005.55
2022-08-02 03:38:00,,0827.0,5.00,0.00,29.3,27.7,00.0,38.1,31.2,22.6,0002.5,0008.55,0005.74,0005.54
2022-08-02 03:39:00,,0827.1,5.00,0.00,29.3,27.8,00.0,38.1,31.2,22.5,0001.7,0008.53,0005.72,0005.54
2022-08-02 03:40:00,,0826.9,5.00,0.00,29.3,28.0,00.0,38.1,31.3,22.6,0002.9,0008.47,0005.70,0005.54
2022-08-02 03:41:00,,0827.0,5.00,0.00,29.4,28.1,00.0,38.1,31.3,22.4,0002.9,0008.47,0005.70,0005.54
2022-08-02 03:42:00,,0826.9,5.00,0.00,29.4,28.2,00.0,38.1,31.4,22.3,0002.5,0008.46,0005.69,0005.53
2022-08-02 03:43:00,,0826.9,5.00,0.00,29.4,28.4,00.0,38.2,31.4,22.3,0001.2,0008.43,0005.69,0005.52
2022-08-02 03:44:00,,0826.9,5.00,0.00,29.5,28.4,00.0,38.2,31.5,22.2,0000.0,0008.30,0005.67,0005.50
2022-08-02 03:45:00,,0826.9,5.00,0.00,29.5,28.5,00.0,38.2,31.5,22.3,0000.0,0007.88,0005.66,0005.46
2022-08-02 03:46:00,,0826.8,4.99,0.00,29.5,28.6,00.0,38.2,31.5,22.2,0000.0,0007.92,0005.64,0005.42
2022-08-02 03:47:00,,0826.8,5.00,0.00,29.5,28.1,00.0,38.2,31.4,22.1,0000.0,0007.92,0005.60,0005.38
2022-08-02 03:48:00,,0826.8,5.01,0.00,29.5,27.3,00.0,38.2,31.2,22.2,0000.0,0007.98,0005.60,0005.34
2022-08-02 03:49:00,,0826.8,4.99,0.00,29.4,27.0,00.0,38.2,31.2,22.3,0000.0,0007.93,0005.59,0005.32
2022-08-02 03:50:00,,0826.8,5.01,0.00,29.4,27.0,00.0,38.1,31.1,22.3,0000.0,0007.92,0005.55,0005.29
2022-08-02 03:51:00,,0826.9,4.99,0.00,29.3,27.2,00.0,38.1,31.1,22.4,0000.0,0007.88,0005.52,0005.25
2022-08-02 03:52:00,,0826.7,4.99,0.00,29.3,27.3,00.0,38.1,31.1,22.5,0000.0,0007.88,0005.51,0005.23
2022-08-02 03:53:00,,0826.8,5.01,0.00,29.3,27.5,00.0,38.1,31.1,22.5,0000.0,0007.92,0005.51,0005.21
2022-08-02 03:54:00,,0826.8,5.00,0.00,29.3,27.7,00.0,38.1,31.2,22.4,0000.0,0007.88,0005.46,0005.17
2022-08-02 03:55:00,,0826.8,4.99,0.00,29.3,27.8,00.0,38.1,31.2,22.4,0000.0,0007.93,0005.45,0005.14
2022-08-02 03:56:00,,0826.9,5.00,0.00,29.3,28.0,00.0,38.1,31.3,22.3,0000.0,0007.91,0005.43,0005.15
2022-08-02 03:57:00,,0826.8,5.00,0.00,29.4,28.1,00.0,38.1,31.3,22.3,0000.0,0007.86,0005.42,0005.14
2022-08-02 03:58:00,,0826.9,4.99,0.00,29.4,28.2,00.0,38.1,31.4,22.2,0000.0,0007.85,0005.42,0005.13
2022-08-02 03:59:00,,0826.8,5.00,0.00,29.4,28.4,00.0,38.2,31.4,22.2,0000.0,0007.72,0005.39,0005.13
